Location: Bad Salzschlirf
(50.3750°N, 9.3000°E)
Time: 08:03:40
(UTC+01:00)

ISS - Visible Passes

Search period start: 27 January 2021 00:00
Search period end: 06 February 2021 00:00
Orbit: 418 x 421 km, 51.6° (Epoch: 27 January)

Date Brightness Start Highest point End Pass type
(mag) Time Alt. Az. Time Alt. Az. Time Alt. Az.
27 Jan -3.7 17:59:58 10° W 18:03:22 83° NNW 18:06:15 14° ENE visible
27 Jan -2.4 19:36:55 10° WNW 19:39:13 39° WNW 19:39:13 39° WNW visible
28 Jan -3.7 18:49:34 10° W 18:52:56 69° N 18:53:50 44° ENE visible
28 Jan -0.4 20:26:26 10° WNW 20:26:49 13° WNW 20:26:49 13° WNW visible
29 Jan -3.7 18:02:10 10° W 18:05:32 69° N 18:08:28 13° E visible
29 Jan -2.5 19:39:04 10° WNW 19:41:27 42° W 19:41:27 42° W visible
30 Jan -3.8 18:51:42 10° WNW 18:55:05 84° N 18:56:07 43° E visible
30 Jan -0.4 20:28:40 10° W 20:29:06 13° W 20:29:06 13° W visible
31 Jan -3.7 18:04:19 10° WNW 18:07:42 74° N 18:10:50 12° E visible
31 Jan -2.4 19:41:12 10° W 19:43:49 39° WSW 19:43:49 39° WSW visible
01 Feb -3.4 18:53:47 10° WNW 18:57:08 61° SSW 18:58:36 29° SE visible
01 Feb -0.3 20:31:22 10° W 20:31:35 11° WSW 20:31:35 11° WSW visible
02 Feb -3.6 18:06:23 10° WNW 18:09:45 79° SSW 18:13:09 10° ESE visible
02 Feb -1.7 19:43:32 10° W 19:46:14 22° SW 19:46:29 22° SSW visible
03 Feb -2.1 18:55:55 10° W 18:58:59 31° SSW 19:01:31 13° SSE visible
04 Feb -2.6 18:08:25 10° W 18:11:40 44° SSW 18:14:54 10° SE visible
04 Feb -0.5 19:47:30 10° SW 19:47:48 10° SW 19:48:05 10° SW visible
05 Feb -0.8 18:58:33 10° WSW 19:00:36 15° SW 19:02:40 10° S visible
